This is the latest recevied weather packets stored in our database for station/object KQ4WWD. If no packets are shown the sender has not sent any weather packets the latest 10 day(s).
| Time | Temp. | Humidity | Pressure | Rain* | Wind** | Luminosity | Snow |
|---|---|---|---|---|---|---|---|
| 1787870244 | 28.89° C | 76% | 1015.3 hPa | 0 mm | - | 82 W/m² | - |
| 1787869939 | 28.89° C | 76% | 1015 hPa | 0 mm | - | 92 W/m² | - |
| 1787869638 | 28.89° C | 76% | 1014.9 hPa | 0 mm | - | 99 W/m² | - |
| 1787869333 | 28.89° C | 75% | 1014.9 hPa | 0 mm | - | 106 W/m² | - |
| 1787869032 | 29.44° C | 75% | 1014.8 hPa | 0 mm | - | 109 W/m² | - |
| 1787868731 | 29.44° C | 75% | 1015 hPa | 0 mm | - | 115 W/m² | - |
| 1787868429 | 30° C | 72% | 1015.3 hPa | 0 mm | - | 133 W/m² | - |
| 1787868129 | 30° C | 72% | 1015.1 hPa | 0 mm | - | 163 W/m² | - |
| 1787867825 | 30° C | 72% | 1014.9 hPa | 0 mm | - | 194 W/m² | - |
| 1787867521 | 30° C | 73% | 1014.9 hPa | 0 mm | - | 177 W/m² | - |
| 1787867215 | 30° C | 73% | 1015 hPa | 0 mm | - | 184 W/m² | - |
| 1787866910 | 29.44° C | 74% | 1014.6 hPa | 0 mm | - | 184 W/m² | - |
| 1787866606 | 29.44° C | 75% | 1015 hPa | 0 mm | - | 183 W/m² | - |
| 1787866304 | 29.44° C | 75% | 1014.8 hPa | 0 mm | - | 191 W/m² | - |
| 1787865999 | 30° C | 76% | 1014.7 hPa | 0 mm | - | 198 W/m² | - |
| 1787865695 | 30° C | 77% | 1014.7 hPa | 0 mm | - | 208 W/m² | - |
| 1787865394 | 29.44° C | 78% | 1014.5 hPa | 0 mm | - | 215 W/m² | - |
| 1787865090 | 29.44° C | 78% | 1014.5 hPa | 0 mm | - | 210 W/m² | - |
| 1787864786 | 29.44° C | 78% | 1014.8 hPa | 0 mm | - | 206 W/m² | - |
| 1787864486 | 30° C | 78% | 1014.7 hPa | 0 mm | - | 210 W/m² | - |
| 1787864185 | 30° C | 77% | 1014.6 hPa | 0 mm | - | 221 W/m² | - |
| 1787863880 | 30° C | 75% | 1014.6 hPa | 0 mm | - | 232 W/m² | - |
| 1787863578 | 30.56° C | 75% | 1014.5 hPa | 0 mm | - | 252 W/m² | - |
| 1787863273 | 30° C | 76% | 1014.4 hPa | 0 mm | - | 262 W/m² | - |
| 1787862969 | 30° C | 74% | 1014.6 hPa | 0 mm | - | 266 W/m² | - |
* Rain latest hour (hover to see other rain measurements)
** Current wind speed in m/s (hover to see current wind gust speed)